Location: CNYAC Observatory
(43.2150°N, 74.9500°W)
Time: 09:31:54
(UTC-04:00)

Meteor 1-22 Rocket - Pass Details

Date: 02 June 2018
Orbit: 786 x 941 km, 81.2° (Epoch: 17 June)

Event Time Altitude Azimuth Distance (km) Brightness Sun altitude
Rises 23:21:27 0° 337° (NNW) 3,299 8.9 -20.8°
Reaches altitude 10° 23:24:14 10° 323° (NW) 2,358 7.6 -21.0°
Maximum altitude 23:28:20 23° 272° (W) 1,614 5.9 -21.3°
Enters shadow 23:31:43 13° 226° (SW) 2,147 6.1 -21.5°
